Miscellaneous Local Product
Issued by NWS Hastings, NE

Home | Current Version | Previous Version | Graphics & Text | Print | Product List | Glossary On
Versions: 1 2 3 4 5 6 7 8 9 10 11 12 13 14 15 16 17 18 19 20 21 22 23 24 25 26 27 28 29 30 31 32 33 34 35 36 37 38 39 40 41 42 43 44 45 46 47 48 49 50
000
AXUS43 KGID 200702
MISGRI

GID CWA HOURLY WEATHER ROUNDUP
NATIONAL WEATHER SERVICE HASTINGS NE
200 AM CDT WED AUG 20 2014

NOTE: "FAIR" INDICATES FEW OR NO CLOUDS BELOW 12,000 FEET WITH NO
SIGNIFICANT WEATHER AND/OR OBSTRUCTIONS TO VISIBILITY.

...SOUTH CENTRAL NEBRASKA...

CITY           SKY/WX    TMP DP  RH WIND       PRES   REMARKS
GRAND ISLAND   CLOUDY    75  67  76 SE8       29.78F
HASTINGS       CLOUDY    75  64  68 SE9       29.79F
KEARNEY        CLOUDY    73  66  78 S6        29.81R
ORD            CLOUDY    73  68  84 S6        29.77F
AURORA         CLOUDY    72  71  97 SE5       29.79S
LEXINGTON      LGT RAIN  74  66  77 CALM      29.80F
HOLDREGE       CLOUDY    75  64  70 CALM      29.81F
HEBRON         MOCLDY    75  65  71 S8        29.79S

...NEBRASKA PANHANDLE...

CITY           SKY/WX    TMP DP  RH WIND       PRES   REMARKS
CHADRON        CLOUDY    75  52  44 S12       29.76F
ALLIANCE       CLOUDY    66  57  72 CALM      29.83S
SCOTTSBLUFF    MOCLDY    69  56  62 SE7       29.83F
SIDNEY         MOCLDY    63  59  87 W6        29.85F

...WESTERN AND NORTH CENTRAL NEBRASKA...

CITY           SKY/WX    TMP DP  RH WIND       PRES   REMARKS
VALENTINE      MOCLDY    75  67  76 S6        29.78F
AINSWORTH      LGT RAIN  71  68  90 SE13      29.78F
ONEILL         CLOUDY    72  67  84 SE12      29.78F
BROKEN BOW     CLOUDY    73  68  84 SW3       29.80F
IMPERIAL       CLOUDY    68  62  81 N5        29.84R
NORTH PLATTE   LGT RAIN  70  62  76 N8        29.78F
MCCOOK         CLOUDY    73  63  70 E5        29.80F

...EASTERN NEBRASKA...

CITY           SKY/WX    TMP DP  RH WIND       PRES   REMARKS
NORFOLK        CLOUDY    71  65  81 SE7       29.78F
SO SIOUX CITY  PTCLDY    69  66  90 E5        29.80F
TEKAMAH        MOCLDY    70  66  87 CALM      29.79F
COLUMBUS       CLOUDY    70  66  88 E5        29.80S
ALBION         CLOUDY    70  65  82 SE7       29.78F
OMAHA EPPLEY   MOCLDY    74  65  73 SE6       29.81S
OFFUTT AFB     MOCLDY    71  71  99 E6        29.80F
MILLARD        MOCLDY    76  69  79 SE5       29.79F
LINCOLN        MOCLDY    79  71  76 SE8       29.79F
NEBRASKA CITY  PTCLDY    73  70  91 SE3       29.81S
BEATRICE       MOCLDY    76  69  77 S9        29.80S
FALLS CITY     PTCLDY    73  71  93 SE5       29.80S

...NORTHERN KANSAS...

CITY           SKY/WX    TMP DP  RH WIND       PRES   REMARKS
GOODLAND       CLOUDY    76  58  53 S13       29.84F
HILL CITY      CLOUDY    79  62  56 W10       29.80R
NORTON         SUNNY     73  61  64 NE3       29.80S
PHILLIPSBURG   CLEAR     77  63  61 SE5       29.78F
SMITH CENTER   CLEAR     73  63  68 SE8       29.80R
BELOIT         CLEAR     77  64  65 SE6       29.78S
HAYS           PTCLDY    79  61  53 S16G23    29.81S
RUSSELL        PTCLDY    78  61  55 S20G28    29.79F
CONCORDIA      MOCLDY    78  68  71 S15G24    29.79S
SALINA         PTCLDY    80  68  66 S12       29.81S
TOPEKA         CLEAR     80  68  66 S7        29.82S



USA.gov is the U.S. government's official web portal to all federal, state and local government web resources and services.